• In Deutschland
  • Länderverzeichnis
  • Für 7 Tage
  • Wassertemperatur
  • Satellitenkarten
  • Wetterkarte
  • Widgets
  • user-avatar
    Anmelden

    Stündliche Wetter Pabna

    Heute, 25 Juli, Dienstag

    Zeit Temperatur Niederschläge Wind Luftdruck Luftfeuchtigkeit
    00:00 +28°C° 3,6 mm 6 m/S 746 mmHg 93%
    01:00 +28°C° 4,1 mm 7 m/S 746 mmHg 93%
    02:00 +28°C° 4,1 mm 7 m/S 745 mmHg 93%
    03:00 +27°C° 4,1 mm 7 m/S 745 mmHg 93%
    04:00 +27°C° 2 mm 7 m/S 745 mmHg 92%
    05:00 +27°C° 2 mm 7 m/S 745 mmHg 92%
    06:00 +27°C° 2 mm 7 m/S 746 mmHg 92%
    07:00 +27°C° 1,5 mm 7 m/S 746 mmHg 91%
    08:00 +28°C° 1,5 mm 6 m/S 747 mmHg 91%
    09:00 +28°C° 1,5 mm 6 m/S 747 mmHg 91%
    10:00 +29°C° 0,7 mm 6 m/S 747 mmHg 88%
    11:00 +29°C° 0,7 mm 6 m/S 747 mmHg 86%
    12:00 +30°C° 0,7 mm 6 m/S 747 mmHg 83%
    13:00 +32°C° 1,1 mm 6 m/S 747 mmHg 82%
    14:00 +32°C° 1,1 mm 6 m/S 746 mmHg 81%
    15:00 +32°C° 1,1 mm 6 m/S 746 mmHg 80%
    16:00 +32°C° 1,3 mm 6 m/S 746 mmHg 82%
    17:00 +30°C° 1,3 mm 6 m/S 746 mmHg 84%
    18:00 +29°C° 1,3 mm 5 m/S 746 mmHg 86%
    19:00 +29°C° 1,6 mm 5 m/S 746 mmHg 87%
    20:00 +29°C° 1,6 mm 5 m/S 747 mmHg 88%
    21:00 +29°C° 1,6 mm 5 m/S 747 mmHg 89%
    22:00 +28°C° 1,5 mm 5 m/S 748 mmHg 89%
    23:00 +28°C° 1,5 mm 5 m/S 748 mmHg 89%

    Morgen, 26 Juli, Mittwoch

    Zeit Temperatur Niederschläge Wind Luftdruck Luftfeuchtigkeit
    00:00 +28°C° 1,5 mm 5 m/S 748 mmHg 90%
    01:00 +28°C° 1,7 mm 4 m/S 748 mmHg 89%
    02:00 +28°C° 1,7 mm 4 m/S 747 mmHg 89%
    03:00 +28°C° 1,7 mm 4 m/S 747 mmHg 89%
    04:00 +28°C° 0,8 mm 4 m/S 748 mmHg 90%
    05:00 +28°C° 0,8 mm 3 m/S 748 mmHg 90%
    06:00 +28°C° 0,8 mm 3 m/S 748 mmHg 91%
    07:00 +29°C° 0,7 mm 3 m/S 749 mmHg 87%
    08:00 +30°C° 0,7 mm 3 m/S 749 mmHg 84%
    09:00 +31°C° 0,7 mm 3 m/S 750 mmHg 80%
    10:00 +33°C° 0,6 mm 3 m/S 749 mmHg 75%
    11:00 +34°C° 0,6 mm 3 m/S 749 mmHg 70%
    12:00 +35°C° 0,6 mm 3 m/S 749 mmHg 65%
    13:00 +35°C° 0,5 mm 3 m/S 748 mmHg 65%
    14:00 +35°C° 0,5 mm 3 m/S 747 mmHg 65%
    15:00 +36°C° 0,5 mm 3 m/S 747 mmHg 64%
    16:00 +35°C° 1 mm 3 m/S 747 mmHg 68%
    17:00 +34°C° 1 mm 2 m/S 747 mmHg 72%
    18:00 +34°C° 1 mm 2 m/S 747 mmHg 76%
    19:00 +32°C° 0,5 mm 2 m/S 747 mmHg 79%
    20:00 +31°C° 0,5 mm 2 m/S 748 mmHg 82%
    21:00 +30°C° 0,5 mm 2 m/S 748 mmHg 84%
    22:00 +30°C° 0 mm 2 m/S 748 mmHg 85%
    23:00 +30°C° 0 mm 2 m/S 748 mmHg 86%

    übermorgen, 27 Juli, Donnerstag

    Zeit Temperatur Niederschläge Wind Luftdruck Luftfeuchtigkeit
    00:00 +29°C° 0 mm 3 m/S 749 mmHg 87%
    01:00 +29°C° 0,3 mm 2 m/S 748 mmHg 87%
    02:00 +29°C° 0,3 mm 2 m/S 748 mmHg 88%
    03:00 +29°C° 0,3 mm 2 m/S 748 mmHg 89%
    04:00 +29°C° 0,4 mm 2 m/S 748 mmHg 89%
    05:00 +29°C° 0,4 mm 2 m/S 749 mmHg 88%
    06:00 +29°C° 0,4 mm 2 m/S 749 mmHg 88%
    07:00 +30°C° 0,4 mm 2 m/S 749 mmHg 83%
    08:00 +31°C° 0,4 mm 2 m/S 750 mmHg 77%
    09:00 +34°C° 0,4 mm 2 m/S 750 mmHg 71%
    10:00 +35°C° 0,1 mm 2 m/S 750 mmHg 67%
    11:00 +36°C° 0,1 mm 2 m/S 749 mmHg 63%
    12:00 +36°C° 0,1 mm 2 m/S 749 mmHg 59%
    13:00 +37°C° 0,1 mm 2 m/S 748 mmHg 59%
    14:00 +37°C° 0,1 mm 2 m/S 748 mmHg 58%
    15:00 +36°C° 0,1 mm 1 m/S 747 mmHg 57%
    16:00 +36°C° 0,2 mm 1 m/S 747 mmHg 61%
    17:00 +35°C° 0,2 mm 1 m/S 747 mmHg 64%
    18:00 +35°C° 0,2 mm 1 m/S 747 mmHg 68%
    19:00 +35°C° 0,4 mm 2 m/S 747 mmHg 71%
    20:00 +34°C° 0,4 mm 2 m/S 748 mmHg 75%
    21:00 +31°C° 0,4 mm 3 m/S 748 mmHg 78%
    22:00 +31°C° 0,3 mm 3 m/S 749 mmHg 80%
    23:00 +31°C° 0,3 mm 3 m/S 749 mmHg 81%

    28 Juli, Freitag

    Zeit Temperatur Niederschläge Wind Luftdruck Luftfeuchtigkeit
    00:00 +30°C° 0,3 mm 3 m/S 749 mmHg 83%
    01:00 +30°C° 0,6 mm 3 m/S 749 mmHg 84%
    02:00 +30°C° 0,6 mm 3 m/S 749 mmHg 85%
    03:00 +29°C° 0,6 mm 2 m/S 748 mmHg 87%
    04:00 +29°C° 0,3 mm 2 m/S 748 mmHg 87%
    05:00 +29°C° 0,3 mm 2 m/S 749 mmHg 87%
    06:00 +29°C° 0,3 mm 1 m/S 749 mmHg 87%
    07:00 +31°C° 0,8 mm 2 m/S 749 mmHg 82%
    08:00 +33°C° 0,8 mm 3 m/S 750 mmHg 77%
    09:00 +34°C° 0,8 mm 3 m/S 750 mmHg 72%
    10:00 +35°C° 0,6 mm 3 m/S 750 mmHg 68%
    11:00 +36°C° 0,6 mm 3 m/S 750 mmHg 64%
    12:00 +37°C° 0,6 mm 4 m/S 749 mmHg 60%
    13:00 +37°C° 0 mm 4 m/S 749 mmHg 59%
    14:00 +37°C° 0 mm 3 m/S 748 mmHg 58%
    15:00 +37°C° 0 mm 3 m/S 747 mmHg 57%
    16:00 +37°C° 0 mm 3 m/S 747 mmHg 61%
    17:00 +36°C° 0 mm 3 m/S 747 mmHg 64%
    18:00 +36°C° 0 mm 2 m/S 747 mmHg 67%
    19:00 +35°C° 0 mm 2 m/S 748 mmHg 69%
    20:00 +34°C° 0 mm 2 m/S 749 mmHg 71%
    21:00 +34°C° 0 mm 2 m/S 749 mmHg 72%
    22:00 +32°C° 0 mm 2 m/S 749 mmHg 74%
    23:00 +33°C° 0 mm 3 m/S 750 mmHg 76%

    29 Juli, Samstag

    Zeit Temperatur Niederschläge Wind Luftdruck Luftfeuchtigkeit
    00:00 +31°C° 0 mm 3 m/S 750 mmHg 78%
    01:00 +31°C° 0 mm 3 m/S 749 mmHg 80%
    02:00 +30°C° 0 mm 3 m/S 749 mmHg 81%
    03:00 +30°C° 0 mm 2 m/S 749 mmHg 83%
    04:00 +30°C° 0 mm 2 m/S 749 mmHg 84%
    05:00 +30°C° 0 mm 2 m/S 749 mmHg 84%
    06:00 +29°C° 0 mm 2 m/S 750 mmHg 85%
    07:00 +31°C° 0 mm 3 m/S 750 mmHg 80%
    08:00 +33°C° 0 mm 3 m/S 751 mmHg 74%
    09:00 +35°C° 0 mm 3 m/S 751 mmHg 69%
    10:00 +35°C° 0 mm 3 m/S 751 mmHg 64%
    11:00 +36°C° 0 mm 3 m/S 750 mmHg 60%
    12:00 +37°C° 0 mm 3 m/S 750 mmHg 56%
    13:00 +38°C° 0 mm 3 m/S 749 mmHg 55%
    14:00 +38°C° 0 mm 3 m/S 748 mmHg 54%
    15:00 +38°C° 0 mm 2 m/S 748 mmHg 53%
    16:00 +38°C° 0 mm 2 m/S 747 mmHg 56%
    17:00 +37°C° 0 mm 2 m/S 747 mmHg 59%
    18:00 +37°C° 0 mm 2 m/S 747 mmHg 63%
    19:00 +36°C° 0 mm 2 m/S 747 mmHg 65%
    20:00 +35°C° 0 mm 2 m/S 748 mmHg 68%
    21:00 +34°C° 0 mm 2 m/S 748 mmHg 71%
    22:00 +33°C° 0 mm 3 m/S 749 mmHg 73%
    23:00 +33°C° 0 mm 3 m/S 749 mmHg 75%

    30 Juli, Sonntag

    Zeit Temperatur Niederschläge Wind Luftdruck Luftfeuchtigkeit
    00:00 +31°C° 0 mm 3 m/S 749 mmHg 77%
    01:00 +31°C° 0 mm 3 m/S 749 mmHg 79%
    02:00 +30°C° 0 mm 3 m/S 748 mmHg 80%
    03:00 +30°C° 0 mm 2 m/S 748 mmHg 81%
    04:00 +30°C° 0 mm 2 m/S 749 mmHg 83%
    05:00 +30°C° 0 mm 2 m/S 749 mmHg 84%
    06:00 +30°C° 0 mm 2 m/S 749 mmHg 85%
    07:00 +31°C° 0 mm 2 m/S 749 mmHg 79%
    08:00 +34°C° 0 mm 3 m/S 750 mmHg 73%
    09:00 +35°C° 0 mm 3 m/S 750 mmHg 67%
    10:00 +36°C° 0 mm 3 m/S 750 mmHg 62%
    11:00 +37°C° 0 mm 3 m/S 749 mmHg 58%
    12:00 +38°C° 0 mm 3 m/S 749 mmHg 54%
    13:00 +38°C° 0 mm 3 m/S 748 mmHg 53%
    14:00 +39°C° 0 mm 3 m/S 747 mmHg 52%
    15:00 +39°C° 0 mm 3 m/S 746 mmHg 51%
    16:00 +38°C° 0 mm 3 m/S 746 mmHg 55%
    17:00 +38°C° 0 mm 3 m/S 746 mmHg 58%
    18:00 +37°C° 0 mm 3 m/S 746 mmHg 62%
    19:00 +36°C° 0 mm 3 m/S 747 mmHg 66%
    20:00 +35°C° 0 mm 3 m/S 747 mmHg 69%
    21:00 +34°C° 0 mm 3 m/S 748 mmHg 72%
    22:00 +33°C° 0 mm 4 m/S 748 mmHg 73%
    23:00 +33°C° 0 mm 4 m/S 748 mmHg 75%
    Mehr zeigen